Skip Page Navigation
NASA JPL Caltech
NASA Logo - Jet Propulsion Laboratory + View the NASA Portal
+ Near-Earth Object (NEO) Program
Search JPL
JPL Home Earth Solar System Stars & Galaxies Technology
JPL Solar System Dynamics
BODIES ORBITS EPHEMERIDES TOOLS PHYSICAL DATA DISCOVERY FAQ SITE MAP
JPL Small-Body Database Browser
Search: [ help ]  
(2013 EV108)
Classification: Apollo [NEO, PHA]          SPK-ID: 3632675
Ephemeris | Orbit Diagram | Orbital Elements | Physical Parameters | Close-Approach Data ]

[ hide orbit diagram ]
Orbit Diagram
Note: Make sure you have Java enabled on your browser to see the applet. This applet is provided as a 3D orbit visualization tool. The applet was implemented using 2-body methods, and hence should not be used for determining accurate long-term trajectories (over several years or decades) or planetary encounter circumstances. For accurate long-term ephemerides, please instead use our Horizons system.
Orbit Viewer

Additional Notes: the orbits shown in the applet are color coded. The planets are white lines, and the asteroid/comet is a blue line. The bright white line indicates the portion of the orbit that is above the ecliptic plane, and the darker portion is below the ecliptic plane. Likewise for the asteroid/comet orbit, the light blue indicates the portion above the ecliptic plane, and the dark blue the portion below the ecliptic plane.

Orbit Viewer applet originally written and kindly provided by Osamu Ajiki (AstroArts), and further modified by Ron Baalke (JPL).


Orbital Elements at Epoch 2456400.5 (2013-Apr-18.0) TDB
Reference: JPL 31 (heliocentric ecliptic J2000)
 Element Value Uncertainty (1-sigma)   Units 
e .6343019061855194 6.1516e-05  
a 2.398975649332232 0.00037648 AU
q .8773008220681532 9.9037e-06 AU
i 8.41920223536618 0.00054774 deg
node 33.38883058002623 4.4662e-05 deg
peri 215.2592044580501 0.00024375 deg
M 352.0888028551876 0.0020151 deg
tp 2456430.324755551524
(2013-May-17.82475555)
0.0005773 JED
period 1357.179173014168
3.72
0.31948
0.0008747
d
yr
n .2652560598911002 6.2441e-05 deg/d
Q 3.920650476596311 0.00061528 AU
  Orbit Determination Parameters
   # obs. used (total)      271  
   data-arc span      37 days  
   first obs. used      2013-03-09  
   last obs. used      2013-04-15  
   planetary ephem.      DE405  
   SB-pert. ephem.      SB405-CPV-2  
   condition code      5  
   fit RMS      .58281  
   data source      ORB  
   producer      Otto Matic  
   solution date      2013-May-22 01:47:08  

Additional Information
 Earth MOID = .027873 AU 
 T_jup = 3.208 
[ show covariance matrix ]

Ephemeris | Orbit Diagram | Orbital Elements | Physical Parameters | Close-Approach Data ]

Physical Parameter Table
Parameter Symbol Value Units Sigma Reference Notes
absolute magnitude H 20.705 mag .53843 31 autocmod 2.5c

[ show close-approach data ]
Ephemeris | Orbit Diagram | Orbital Elements | Physical Parameters | Close-Approach Data ]
ABOUT SSD CREDITS/AWARDS PRIVACY/COPYRIGHT GLOSSARY LINKS
FirstGov 2013-May-25 05:10 UT
(server date/time)  
NASA Home Page
Site Manager:   Donald K. Yeomans
Webmaster  Alan B. Chamberlin